Temperature
18 19 20 21 20 19 19 18 18 19 19 19 18 18 18 18 18 19 20 20 20 20 20 20 19 19 19 19 19 19 19 18 18 18 18 18 18 17 17 17 17 17 17 17
19 20 20 20 20 20 20 19 19 20 19 18 18 18 18 18 18 18 19 19 20 20 19 19 19 19 19 19 19 18 18 18 18 18 18 17 17 17 17 17 17 16 16 16
17 19 20 19 19 19 20 19 19 19 19 17 17 17 17 18 18 18 19 19 20 20 19 19 19 19 19 19 18 18 18 18 17 18 18 17 17 17 16 16 16 16 16 16
15 18 19 18 18 19 19 18 18 18 18 17 17 18 18 18 18 19 19 19 19 19 19 19 19 18 18 18 18 18 17 17 17 17 17 17 16 16 16 16 16 16 16 16
14 16 18 18 18 18 18 18 17 17 17 17 17 17 17 18 18 19 19 19 19 19 19 18 18 18 18 18 17 17 17 17 17 16 16 16 16 16 16 16 15 15 15 15
14 16 17 18 18 17 18 18 17 16 16 16 17 17 16 17 18 18 18 19 18 18 18 18 18 17 17 17 17 17 17 17 16 16 16 16 16 15 15 15 15 15 15 15
14 16 16 16 16 17 18 18 17 16 16 16 16 17 17 17 17 17 17 18 18 17 17 17 17 17 17 17 17 16 16 16 16 15 15 15 15 15 15 15 14 14 14 14
13 15 16 16 16 16 16 16 16 16 16 16 16 16 16 17 17 17 17 17 17 17 17 17 16 16 16 16 16 15 15 15 15 15 15 14 14 14 14 14 14 14 14 13
13 14 14 14 15 15 15 15 15 16 16 16 16 16 16 16 16 16 16 16 16 16 16 16 16 16 16 15 15 15 15 14 14 14 14 14 14 14 13 13 13 13 13 13
12 13 13 14 15 15 15 15 16 16 16 16 16 16 16 15 15 15 15 15 15 16 15 15 15 15 15 14 14 14 14 14 14 14 13 13 13 13 13 13 13 13 13 12
12 13 13 14 14 15 15 15 16 16 16 16 16 15 15 15 15 15 14 14 15 15 15 14 14 14 14 14 13 13 13 13 13 13 13 13 12 12 12 12 12 12 12 12
13 13 13 14 14 14 15 15 15 15 15 15 15 15 15 14 14 14 14 14 14 14 14 13 14 14 13 13 13 13 13 13 12 12 12 12 12 11 11 11 11 11 11 11
13 14 14 14 14 14 14 14 15 15 15 15 15 15 14 14 14 14 13 13 13 13 13 13 13 13 13 13 13 13 12 12 12 12 11 11 11 11 11 10 10 10 10 10
13 14 13 13 13 14 14 14 14 14 14 14 14 14 14 13 13 13 13 12 12 13 13 13 12 12 12 12 12 12 12 11 11 11 11 11 11 11 10 10 10 9 9 9
13 14 13 13 13 13 13 13 13 13 13 13 13 13 13 13 12 12 12 12 12 12 12 12 12 11 11 11 11 11 11 11 11 10 10 10 10 10 10 10 9 9 9 9
13 13 13 13 13 13 13 13 13 12 13 13 12 13 12 12 12 11 11 11 12 12 11 11 11 11 11 11 11 11 11 11 10 10 10 10 10 9 9 9 9 8 8 8
12 12 12 12 12 12 12 13 12 12 12 12 12 12 12 11 11 11 11 11 11 11 11 11 11 11 11 11 11 10 10 10 10 10 10 9 9 9 9 9 8 8 8 8
13 13 13 13 12 12 12 12 12 12 12 11 11 11 11 11 11 11 10 10 10 10 10 10 10 10 10 10 10 10 10 10 9 9 9 9 9 9 8 8 8 8 7 7
12 12 12 12 12 12 12 12 12 11 11 11 11 10 10 10 10 10 10 10 10 10 10 10 10 10 10 10 10 10 10 9 9 9 9 8 8 8 8 8 8 7 7 7
12 12 12 12 12 12 12 11 11 11 11 11 10 10 10 10 10 10 10 10 10 10 10 10 10 10 10 9 9 9 9 9 9 9 8 8 8 8 7 7 7 7 7 6
11 11 11 11 11 11 11 11 11 10 10 10 10 10 10 10 10 10 10 9 9 9 9 9 9 9 9 9 9 9 9 9 8 8 8 8 7 7 7 7 6 6 6 6
11 11 11 11 11 10 10 10 10 10 10 10 10 9 9 9 9 9 9 9 9 9 9 9 9 9 9 9 8 8 8 8 8 8 7 7 7 7 6 6 6 6 5 5
11 11 11 10 10 10 10 10 10 10 10 9 9 9 9 9 9 9 9 8 8 9 9 8 8 8 8 8 8 8 8 7 7 7 7 6 6 6 6 6 5 5 5 5
10 10 10 10 10 10 9 9 9 9 9 9 9 9 9 9 9 9 9 8 8 8 8 8 8 8 8 7 7 7 7 7 7 7 6 6 6 6 5 5 5 5 5 4
10 10 10 10 10 9 9 9 9 9 9 9 9 9 9 9 9 8 8 8 8 8 8 8 8 7 7 7 7 7 7 6 6 6 6 6 5 5 5 5 5 4 4 4
10 10 10 10 10 9 9 9 9 9 9 9 8 8 8 8 8 8 8 8 8 8 7 7 7 7 7 7 7 6 6 6 6 6 5 5 5 5 5 4 4 4 4 4
10 10 9 9 9 9 9 9 9 9 9 9 8 8 8 8 8 8 7 7 7 7 7 7 7 7 6 6 6 6 6 6 6 5 5 5 5 5 4 4 4 4 4 3
Wind_Speed
4 3 3 4 5 7 6 9 9 9 9 9 8 6 5 4 5 6 6 6 6 6 5 5 5 5 6 6 5 5 6 5 5 4 3 3 3 2 2 1 2 2 1 1
0 0 3 2 3 6 5 5 5 4 7 6 4 4 5 5 7 6 6 6 7 7 7 5 5 5 5 5 5 5 6 4 3 3 3 3 2 2 2 1 1 1 1 0
2 1 3 1 3 5 4 4 6 8 8 4 4 7 7 7 7 7 7 6 7 7 6 5 4 4 4 5 5 5 5 4 3 3 3 2 2 2 1 1 1 2 1 1
3 3 4 6 2 2 4 3 3 4 4 6 6 4 3 5 7 7 6 5 5 6 5 5 4 4 4 5 5 5 4 3 3 3 3 2 2 2 2 2 2 2 1 1
4 4 2 3 1 1 2 2 2 3 4 5 8 5 3 2 5 6 6 6 6 5 5 6 5 4 5 5 5 5 4 3 2 3 3 3 2 2 2 2 2 2 2 2
5 5 5 6 2 1 3 3 3 3 7 8 7 4 3 3 5 6 7 7 7 7 7 7 5 4 6 5 5 4 3 3 3 3 3 3 2 2 2 2 3 3 3 4
4 3 5 5 4 1 5 6 2 3 6 8 4 4 6 7 7 7 8 8 8 8 7 6 5 6 6 5 4 3 3 4 4 3 3 3 3 3 3 3 4 4 4 4
5 3 6 3 1 4 5 1 1 3 4 5 6 8 8 9 9 9 9 8 8 9 7 6 6 7 7 6 4 4 5 6 6 5 4 4 5 4 4 4 4 4 4 5
6 5 3 2 2 2 1 1 1 3 5 8 9 9 9 9 10 9 9 8 7 9 9 8 6 6 8 5 5 6 7 7 7 7 6 6 5 5 4 4 4 4 4 5
1 2 2 1 1 2 0 1 2 4 6 8 9 10 10 10 10 9 8 8 8 10 10 8 7 7 7 6 6 8 8 7 7 8 8 8 6 5 5 5 4 5 5 5
1 2 1 2 2 1 2 3 5 4 6 8 11 11 11 10 10 9 8 7 8 9 9 8 8 8 7 6 7 9 8 8 8 8 8 8 8 8 7 6 5 5 5 5
4 4 3 2 2 0 3 4 6 7 7 7 9 11 11 10 10 10 9 8 9 9 9 8 8 8 7 6 7 8 8 7 7 6 7 7 8 9 14 12 14 13 10 8
3 2 2 1 1 2 3 5 7 9 10 10 10 11 12 11 10 10 10 10 9 9 9 9 9 9 7 6 7 9 8 7 6 6 6 6 6 7 8 10 14 15 13 12
2 3 2 1 2 3 6 7 9 10 10 11 11 12 13 12 12 11 10 9 9 9 9 9 9 8 6 7 8 9 8 9 8 6 6 6 7 7 7 7 7 7 9 11
1 2 4 4 5 6 8 9 10 10 11 12 13 13 14 13 12 10 9 9 10 10 9 8 9 7 6 7 8 8 7 6 6 6 6 6 6 7 7 7 7 6 6 7
3 5 7 7 7 7 9 9 10 10 11 12 13 13 13 13 12 10 9 9 10 9 8 8 7 5 5 7 8 7 7 10 8 6 6 6 6 6 6 6 6 6 6 5
5 6 7 8 7 8 8 9 10 11 11 12 13 14 14 14 12 11 9 9 10 9 7 7 6 5 6 7 7 6 6 7 9 7 6 6 5 6 6 5 5 5 5 5
4 5 7 9 9 10 10 11 12 12 12 13 13 13 13 12 12 10 9 9 10 9 8 6 5 6 7 7 6 6 6 6 5 6 5 5 5 5 5 6 6 6 5 6
7 8 8 9 10 11 11 12 12 12 13 13 13 13 12 11 11 10 9 10 9 8 5 5 7 7 7 7 8 6 7 7 6 6 6 7 6 5 5 6 5 5 5 5
9 10 10 10 11 12 13 12 13 13 12 13 14 13 12 11 10 10 10 9 5 3 3 6 7 7 7 7 8 6 7 7 7 6 6 6 6 6 5 6 5 5 5 5
10 11 11 12 12 12 12 13 13 13 11 12 13 13 12 10 9 9 10 8 4 4 6 8 7 6 6 7 8 7 7 7 6 6 6 6 6 6 6 5 5 5 5 5
10 11 12 12 13 12 11 11 12 13 12 12 12 12 12 11 10 9 7 5 4 6 6 6 6 8 8 9 7 7 7 7 6 5 5 5 5 5 5 5 5 5 4 4
10 11 12 13 13 13 12 11 12 12 12 12 11 11 10 8 7 7 6 3 4 7 7 6 8 11 11 8 7 7 7 7 6 5 5 5 5 5 4 5 4 4 4 4
11 11 11 12 13 14 13 11 11 10 11 10 9 9 9 8 6 5 5 7 9 10 7 8 11 11 10 6 6 6 6 6 6 5 5 5 5 5 4 4 4 3 3 4
11 12 12 13 12 10 11 11 12 11 11 9 8 8 7 6 7 6 7 8 10 10 7 8 11 10 7 6 6 6 5 5 5 5 5 5 4 4 4 4 3 3 3 3
10 9 9 9 9 9 9 9 8 8 8 8 7 7 7 7 8 8 7 8 9 9 7 6 6 7 6 6 5 5 5 5 5 4 4 4 4 4 4 3 3 3 2 2
10 9 9 8 8 7 8 8 9 8 8 9 8 6 7 8 8 8 8 7 7 6 6 6 5 5 5 5 5 5 4 4 4 4 4 4 4 3 3 3 2 2 2 2
Wind_Direction
210 210 159 160 167 165 166 174 177 213 215 234 221 200 180 162 148 135 131 127 127 128 124 129 133 134 137 138 138 143 144 155 174 178 165 154 154 159 166 187 211 212 212 256
81 119 141 128 167 177 183 176 191 193 234 245 192 146 150 155 152 144 139 133 129 127 128 133 137 136 133 130 130 134 140 147 145 140 143 147 147 149 157 182 188 117 97 66
199 287 93 219 226 187 179 183 174 199 224 181 171 174 177 171 160 153 149 146 141 135 133 134 131 126 131 124 117 122 124 123 126 134 134 150 145 137 154 167 125 100 84 63
131 113 185 237 267 204 168 202 223 225 207 183 178 154 142 156 157 150 140 135 130 128 124 117 113 109 111 111 119 124 120 117 118 122 117 119 111 119 121 106 105 98 69 48
123 147 229 280 283 102 160 251 266 203 161 132 119 88 65 127 144 146 138 130 126 120 113 104 101 113 116 113 116 113 112 111 109 108 112 118 116 120 122 111 100 81 61 58
124 140 201 231 249 280 140 272 274 184 166 153 133 146 202 151 128 123 117 115 115 109 100 97 93 112 117 115 111 111 113 111 98 96 110 124 130 121 109 105 97 82 63 54
137 168 246 255 291 115 160 233 244 174 169 159 162 177 143 127 120 118 113 108 108 105 99 95 99 108 109 105 101 98 94 92 88 88 97 104 97 90 94 97 90 80 70 55
142 161 239 291 36 174 207 255 149 143 150 142 127 119 123 125 123 118 111 104 104 101 91 83 87 97 95 85 81 87 89 88 85 80 83 88 91 84 82 95 96 86 77 63
178 201 243 276 237 269 202 175 172 142 135 135 132 131 127 123 118 111 107 104 103 104 95 78 74 91 94 79 81 85 84 83 82 80 74 74 83 85 81 81 88 85 81 72
189 265 285 314 346 352 277 167 136 140 141 135 133 131 124 121 119 111 103 104 103 101 94 82 72 73 83 84 87 89 86 80 81 83 76 67 63 64 71 69 78 82 79 71
201 266 336 341 330 335 68 94 107 112 125 136 134 131 126 122 117 111 105 97 98 98 94 87 78 73 71 79 91 91 88 85 83 82 83 76 69 62 67 58 66 85 82 78
213 215 191 239 285 56 115 119 126 121 108 109 122 123 118 116 112 110 106 100 96 94 93 85 82 75 65 70 90 98 94 88 87 88 87 87 87 76 60 63 62 63 66 77
220 207 201 215 36 79 110 114 118 119 121 115 111 115 116 112 106 105 102 99 99 97 94 89 82 74 64 67 80 89 95 94 90 89 90 90 89 92 85 65 57 55 57 65
195 146 134 153 106 99 107 105 105 104 106 111 112 110 109 105 102 100 100 101 100 96 90 88 84 74 65 73 83 86 89 91 91 88 89 88 88 86 87 87 75 57 46 53
237 164 152 128 110 107 108 110 108 108 112 111 112 112 111 109 104 99 98 100 96 90 84 84 83 74 67 81 88 89 91 92 90 88 85 86 86 85 85 84 83 75 64 51
123 123 127 127 127 127 123 123 122 121 119 116 113 110 109 106 103 99 95 97 98 92 86 84 80 73 76 86 89 88 92 99 95 92 89 88 87 89 89 86 82 75 68 59
141 143 141 139 137 133 129 126 124 122 119 116 114 111 110 108 104 98 92 89 91 87 82 82 78 73 79 86 92 94 94 97 95 92 89 88 89 91 93 92 86 79 69 56
163 155 146 142 139 132 124 121 121 120 118 116 114 112 112 113 112 108 103 97 89 76 62 63 75 81 82 86 92 97 97 95 93 94 92 89 88 88 90 90 87 83 73 61
119 120 118 120 125 127 124 122 121 118 117 117 117 114 112 111 111 109 103 96 91 82 56 61 82 86 87 92 95 94 98 99 96 93 94 95 91 88 89 90 88 84 79 70
110 113 113 113 115 119 119 119 118 116 117 118 116 113 110 109 110 107 97 85 75 83 84 85 87 86 87 92 94 96 98 99 99 95 92 92 92 89 87 87 87 84 78 75
117 115 115 115 112 112 114 117 118 116 114 115 117 117 114 109 107 106 102 93 59 67 84 87 87 88 89 93 93 96 96 97 96 96 97 97 95 91 89 86 84 81 78 76
119 118 116 114 111 108 107 110 113 114 112 110 110 113 111 107 101 92 83 97 102 94 90 86 86 90 93 92 93 95 96 97 97 96 97 98 100 98 94 91 87 85 84 82
118 117 116 116 114 110 106 107 110 113 113 113 114 115 112 108 107 110 102 84 98 99 95 94 100 96 92 90 92 94 95 95 95 97 98 99 100 101 100 96 93 91 88 85
113 112 113 115 114 112 109 107 106 107 107 107 109 114 115 108 89 80 103 106 104 102 99 103 103 99 94 93 95 94 93 95 97 98 98 96 96 97 98 99 96 92 91 90
111 113 115 117 116 116 114 111 107 105 104 101 97 96 100 108 112 109 104 104 104 101 99 99 99 98 96 97 97 97 97 99 103 105 105 105 106 104 102 100 98 97 95 88
107 108 110 111 115 118 119 116 114 113 113 107 98 96 97 99 103 104 101 102 101 99 98 96 97 97 97 96 97 97 98 101 101 101 109 112 111 110 108 103 98 98 100 97
102 103 104 102 101 110 115 118 119 118 118 120 113 107 108 107 106 105 104 103 101 97 94 92 93 96 97 96 93 92 93 97 101 102 103 105 108 111 118 120 119 116 113 105
Height
1465 1461 1461 1462 1466 1470 1473 1479 1486 1482 1480 1471 1467 1467 1469 1471 1472 1473 1474 1476 1479 1481 1483 1486 1489 1491 1495 1498 1500 1502 1504 1506 1508 1511 1514 1515 1517 1518 1520 1521 1522 1522 1523 1523
1464 1460 1460 1463 1463 1466 1467 1470 1472 1471 1472 1464 1464 1466 1468 1470 1471 1473 1474 1476 1479 1481 1483 1487 1489 1491 1494 1496 1499 1501 1503 1505 1507 1509 1511 1513 1514 1516 1517 1518 1519 1519 1520 1520
1474 1465 1463 1472 1465 1464 1464 1464 1466 1470 1465 1462 1463 1464 1466 1468 1470 1472 1474 1477 1479 1481 1484 1487 1489 1492 1494 1496 1498 1501 1502 1504 1506 1508 1509 1511 1513 1514 1515 1516 1517 1517 1517 1518
1476 1471 1481 1471 1459 1459 1461 1461 1460 1459 1459 1460 1461 1463 1466 1468 1469 1472 1475 1478 1480 1482 1485 1487 1490 1492 1494 1496 1498 1500 1502 1503 1505 1506 1507 1510 1511 1512 1513 1514 1514 1515 1515 1515
1481 1480 1474 1465 1459 1460 1462 1462 1459 1458 1458 1460 1462 1465 1468 1469 1471 1473 1476 1478 1481 1484 1486 1488 1490 1492 1495 1497 1498 1500 1501 1502 1503 1505 1506 1508 1509 1510 1511 1512 1513 1513 1513 1514
1478 1478 1480 1467 1457 1457 1460 1464 1457 1457 1457 1459 1461 1468 1469 1469 1471 1474 1476 1479 1481 1484 1486 1488 1489 1493 1494 1496 1498 1499 1500 1502 1503 1504 1505 1507 1508 1509 1510 1510 1511 1511 1512 1512
1475 1476 1471 1459 1455 1456 1469 1464 1455 1455 1456 1458 1460 1462 1465 1469 1472 1475 1477 1480 1482 1484 1486 1488 1490 1492 1494 1496 1497 1499 1500 1501 1502 1504 1505 1506 1507 1507 1508 1509 1509 1509 1510 1510
1474 1476 1473 1456 1455 1458 1458 1454 1454 1455 1457 1458 1459 1462 1465 1469 1472 1475 1478 1480 1483 1485 1487 1489 1491 1493 1494 1496 1497 1499 1500 1501 1502 1503 1504 1505 1506 1506 1507 1507 1508 1508 1509 1509
1465 1466 1458 1455 1455 1454 1454 1453 1454 1455 1457 1458 1460 1463 1466 1469 1473 1476 1479 1482 1484 1486 1488 1490 1493 1494 1495 1497 1498 1499 1500 1501 1502 1504 1504 1505 1505 1506 1506 1507 1507 1507 1507 1508
1460 1457 1455 1454 1454 1453 1453 1453 1454 1455 1457 1458 1461 1464 1467 1470 1474 1477 1481 1483 1485 1487 1489 1491 1493 1495 1496 1498 1499 1500 1501 1502 1503 1504 1504 1505 1505 1506 1506 1507 1507 1507 1508 1508
1458 1456 1454 1454 1454 1453 1453 1453 1454 1456 1458 1459 1462 1465 1468 1471 1475 1478 1482 1485 1487 1489 1491 1493 1495 1496 1498 1499 1500 1501 1502 1503 1504 1504 1505 1506 1506 1507 1507 1508 1509 1509 1509 1509
1456 1454 1454 1454 1454 1454 1453 1453 1454 1456 1459 1461 1463 1466 1470 1473 1477 1480 1484 1487 1489 1491 1493 1495 1496 1498 1499 1501 1502 1503 1503 1504 1505 1506 1507 1508 1508 1509 1510 1511 1511 1511 1512 1512
1452 1452 1453 1453 1454 1454 1454 1455 1456 1458 1460 1463 1466 1469 1472 1475 1479 1482 1486 1489 1491 1493 1495 1497 1498 1500 1501 1503 1504 1504 1505 1506 1508 1509 1510 1510 1511 1511 1512 1514 1514 1514 1515 1515
1451 1452 1453 1453 1454 1454 1455 1457 1458 1460 1462 1465 1467 1471 1475 1478 1482 1485 1489 1492 1494 1496 1497 1499 1501 1502 1504 1506 1506 1507 1508 1510 1511 1512 1513 1513 1514 1515 1515 1516 1516 1517 1518 1518
1450 1451 1452 1453 1454 1455 1457 1458 1461 1463 1465 1468 1471 1474 1478 1481 1485 1489 1492 1495 1497 1499 1500 1502 1504 1505 1507 1509 1510 1510 1511 1512 1514 1515 1516 1516 1517 1518 1518 1519 1519 1520 1520 1521
1449 1450 1452 1453 1455 1456 1458 1460 1463 1466 1468 1471 1473 1477 1481 1484 1488 1492 1495 1498 1500 1502 1504 1506 1507 1509 1511 1512 1513 1514 1515 1516 1516 1517 1518 1519 1520 1520 1521 1522 1522 1523 1523 1523
1448 1449 1451 1453 1455 1457 1459 1462 1465 1468 1471 1474 1476 1480 1484 1487 1491 1495 1498 1501 1503 1505 1508 1510 1511 1512 1514 1515 1516 1516 1517 1518 1519 1520 1521 1522 1522 1523 1524 1524 1525 1525 1525 1526
1447 1449 1450 1452 1455 1458 1461 1464 1467 1471 1474 1477 1480 1484 1487 1491 1494 1498 1501 1504 1506 1509 1511 1513 1514 1515 1516 1517 1518 1519 1520 1521 1521 1522 1523 1524 1525 1526 1526 1527 1527 1527 1527 1528
1448 1450 1452 1454 1457 1460 1463 1467 1470 1473 1477 1481 1484 1488 1491 1495 1498 1501 1505 1507 1509 1511 1514 1516 1517 1518 1519 1520 1521 1522 1522 1523 1524 1525 1526 1527 1527 1528 1528 1528 1529 1529 1529 1529
1450 1452 1455 1457 1460 1463 1466 1470 1473 1477 1481 1485 1488 1492 1495 1499 1502 1505 1508 1510 1513 1515 1517 1518 1520 1521 1522 1523 1524 1525 1525 1526 1527 1527 1528 1529 1529 1530 1530 1530 1531 1531 1531 1531
1453 1455 1458 1460 1464 1467 1470 1474 1477 1480 1485 1488 1492 1495 1499 1502 1506 1509 1511 1514 1517 1519 1520 1522 1523 1524 1525 1526 1527 1528 1528 1529 1530 1530 1531 1531 1531 1532 1532 1532 1532 1533 1533 1532
1456 1459 1461 1464 1467 1471 1475 1478 1482 1485 1489 1493 1496 1500 1503 1506 1509 1512 1515 1517 1520 1522 1524 1525 1526 1527 1528 1529 1530 1530 1531 1532 1532 1533 1533 1533 1534 1534 1534 1534 1535 1535 1535 1534
1460 1463 1466 1469 1472 1475 1479 1483 1487 1490 1493 1497 1500 1504 1506 1509 1513 1515 1518 1521 1523 1525 1527 1528 1529 1530 1531 1532 1533 1533 1533 1534 1534 1535 1535 1536 1536 1536 1536 1537 1537 1537 1537 1536
1463 1467 1470 1473 1477 1480 1484 1488 1491 1495 1498 1501 1505 1508 1511 1513 1516 1519 1522 1524 1526 1528 1530 1531 1532 1533 1534 1535 1535 1536 1536 1537 1537 1537 1538 1538 1538 1539 1539 1539 1539 1539 1538 1538
1468 1471 1474 1477 1481 1484 1488 1492 1495 1499 1502 1506 1509 1512 1515 1517 1520 1522 1525 1527 1530 1531 1533 1534 1535 1536 1537 1537 1537 1538 1539 1539 1540 1540 1540 1540 1541 1541 1541 1541 1540 1540 1539 1539
1472 1475 1479 1482 1485 1489 1492 1496 1499 1503 1506 1509 1512 1515 1518 1521 1523 1526 1528 1530 1532 1534 1535 1536 1537 1538 1539 1539 1540 1540 1541 1541 1542 1542 1542 1542 1543 1543 1543 1542 1542 1541 1541 1540
1478 1481 1484 1487 1491 1494 1497 1500 1503 1507 1510 1512 1515 1519 1521 1524 1527 1529 1531 1533 1535 1536 1538 1539 1540 1541 1541 1542 1542 1543 1543 1543 1543 1544 1544 1544 1544 1544 1544 1543 1543 1542 1542 1541